Year,Month,Day,Hour,Minute,Value (Times are PST for insolation in W/m^2)
2008,11,06,00,00,0.00
2008,11,06,00,01,0.00
2008,11,06,00,02,0.00
2008,11,06,00,03,0.00
2008,11,06,00,04,0.00
2008,11,06,00,05,0.00
2008,11,06,00,06,0.00
2008,11,06,00,07,0.00
2008,11,06,00,08,0.00
2008,11,06,00,09,0.00
2008,11,06,00,10,0.00
2008,11,06,00,11,0.00
2008,11,06,00,12,0.00
2008,11,06,00,13,0.00
2008,11,06,00,14,0.00
2008,11,06,00,15,0.00
2008,11,06,00,16,0.00
2008,11,06,00,17,0.00
2008,11,06,00,18,0.00
2008,11,06,00,19,0.00
2008,11,06,00,20,0.00
2008,11,06,00,21,0.00
2008,11,06,00,22,0.00
2008,11,06,00,23,0.00
2008,11,06,00,24,0.00
2008,11,06,00,25,0.00
2008,11,06,00,26,0.00
2008,11,06,00,27,0.00
2008,11,06,00,28,0.00
2008,11,06,00,29,0.00
2008,11,06,00,30,0.00
2008,11,06,00,31,0.00
2008,11,06,00,32,0.00
2008,11,06,00,33,0.00
2008,11,06,00,34,0.00
2008,11,06,00,35,0.00
2008,11,06,00,36,0.00
2008,11,06,00,37,0.00
2008,11,06,00,38,0.00
2008,11,06,00,39,0.00
2008,11,06,00,40,0.00
2008,11,06,00,41,0.00
2008,11,06,00,42,0.00
2008,11,06,00,43,0.00
2008,11,06,00,44,0.00
2008,11,06,00,45,0.00
2008,11,06,00,46,0.00
2008,11,06,00,47,0.00
2008,11,06,00,48,0.00
2008,11,06,00,49,0.00
2008,11,06,00,50,0.00
2008,11,06,00,51,0.00
2008,11,06,00,52,0.00
2008,11,06,00,53,0.00
2008,11,06,00,54,0.00
2008,11,06,00,55,0.00
2008,11,06,00,56,0.00
2008,11,06,00,57,0.00
2008,11,06,00,58,0.00
2008,11,06,00,59,0.00
2008,11,06,01,00,0.00
2008,11,06,01,01,0.00
2008,11,06,01,02,0.00
2008,11,06,01,03,0.00
2008,11,06,01,04,0.00
2008,11,06,01,05,0.00
2008,11,06,01,06,0.00
2008,11,06,01,07,0.00
2008,11,06,01,08,0.00
2008,11,06,01,09,0.00
2008,11,06,01,10,0.00
2008,11,06,01,11,0.00
2008,11,06,01,12,0.00
2008,11,06,01,13,0.00
2008,11,06,01,14,0.00
2008,11,06,01,15,0.00
2008,11,06,01,16,0.00
2008,11,06,01,17,0.00
2008,11,06,01,18,0.00
2008,11,06,01,19,0.00
2008,11,06,01,20,0.00
2008,11,06,01,21,0.00
2008,11,06,01,22,0.00
2008,11,06,01,23,0.00
2008,11,06,01,24,0.00
2008,11,06,01,25,0.00
2008,11,06,01,26,0.00
2008,11,06,01,27,0.00
2008,11,06,01,28,0.00
2008,11,06,01,29,0.00
2008,11,06,01,30,0.00
2008,11,06,01,31,0.00
2008,11,06,01,32,0.00
2008,11,06,01,33,0.00
2008,11,06,01,34,0.00
2008,11,06,01,35,0.00
2008,11,06,01,36,0.00
2008,11,06,01,37,0.00
2008,11,06,01,38,0.00
2008,11,06,01,39,0.00
2008,11,06,01,40,0.00
2008,11,06,01,41,0.00
2008,11,06,01,42,0.00
2008,11,06,01,43,0.00
2008,11,06,01,44,0.00
2008,11,06,01,45,0.00
2008,11,06,01,46,0.00
2008,11,06,01,47,0.00
2008,11,06,01,48,0.00
2008,11,06,01,49,0.00
2008,11,06,01,50,0.00
2008,11,06,01,51,0.00
2008,11,06,01,52,0.00
2008,11,06,01,53,0.00
2008,11,06,01,54,0.00
2008,11,06,01,55,0.00
2008,11,06,01,56,0.00
2008,11,06,01,57,0.00
2008,11,06,01,58,0.00
2008,11,06,01,59,0.00
2008,11,06,02,00,0.00
2008,11,06,02,01,0.00
2008,11,06,02,02,0.00
2008,11,06,02,03,0.00
2008,11,06,02,04,0.00
2008,11,06,02,05,0.00
2008,11,06,02,06,0.00
2008,11,06,02,07,0.00
2008,11,06,02,08,0.00
2008,11,06,02,09,0.00
2008,11,06,02,10,0.00
2008,11,06,02,11,0.00
2008,11,06,02,12,0.00
2008,11,06,02,13,0.00
2008,11,06,02,14,0.00
2008,11,06,02,15,0.00
2008,11,06,02,16,0.00
2008,11,06,02,17,0.00
2008,11,06,02,18,0.00
2008,11,06,02,19,0.00
2008,11,06,02,20,0.00
2008,11,06,02,21,0.00
2008,11,06,02,22,0.00
2008,11,06,02,23,0.00
2008,11,06,02,24,0.00
2008,11,06,02,25,0.00
2008,11,06,02,26,0.00
2008,11,06,02,27,0.00
2008,11,06,02,28,0.00
2008,11,06,02,29,0.00
2008,11,06,02,30,0.00
2008,11,06,02,31,0.00
2008,11,06,02,32,0.00
2008,11,06,02,33,0.00
2008,11,06,02,34,0.00
2008,11,06,02,35,0.00
2008,11,06,02,36,0.00
2008,11,06,02,37,0.00
2008,11,06,02,38,0.00
2008,11,06,02,39,0.00
2008,11,06,02,40,0.00
2008,11,06,02,41,0.00
2008,11,06,02,42,0.00
2008,11,06,02,43,0.00
2008,11,06,02,44,0.00
2008,11,06,02,45,0.00
2008,11,06,02,46,0.00
2008,11,06,02,47,0.00
2008,11,06,02,48,0.00
2008,11,06,02,49,0.00
2008,11,06,02,50,0.00
2008,11,06,02,51,0.00
2008,11,06,02,52,0.00
2008,11,06,02,53,0.00
2008,11,06,02,54,0.00
2008,11,06,02,55,0.00
2008,11,06,02,56,0.00
2008,11,06,02,57,0.00
2008,11,06,02,58,0.00
2008,11,06,02,59,0.00
2008,11,06,03,00,0.00
2008,11,06,03,01,0.00
2008,11,06,03,02,0.00
2008,11,06,03,03,0.00
2008,11,06,03,04,0.00
2008,11,06,03,05,0.00
2008,11,06,03,06,0.00
2008,11,06,03,07,0.00
2008,11,06,03,08,0.00
2008,11,06,03,09,0.00
2008,11,06,03,10,0.00
2008,11,06,03,11,0.00
2008,11,06,03,12,0.00
2008,11,06,03,13,0.00
2008,11,06,03,14,0.00
2008,11,06,03,15,0.00
2008,11,06,03,16,0.00
2008,11,06,03,17,0.00
2008,11,06,03,18,0.00
2008,11,06,03,19,0.00
2008,11,06,03,20,0.00
2008,11,06,03,21,0.00
2008,11,06,03,22,0.00
2008,11,06,03,23,0.00
2008,11,06,03,24,0.00
2008,11,06,03,25,0.00
2008,11,06,03,26,0.00
2008,11,06,03,27,0.00
2008,11,06,03,28,0.00
2008,11,06,03,29,0.00
2008,11,06,03,30,0.00
2008,11,06,03,31,0.00
2008,11,06,03,32,0.00
2008,11,06,03,33,0.00
2008,11,06,03,34,0.00
2008,11,06,03,35,0.00
2008,11,06,03,36,0.00
2008,11,06,03,37,0.00
2008,11,06,03,38,0.00
2008,11,06,03,39,0.00
2008,11,06,03,40,0.00
2008,11,06,03,41,0.00
2008,11,06,03,42,0.00
2008,11,06,03,43,0.00
2008,11,06,03,44,0.00
2008,11,06,03,45,0.00
2008,11,06,03,46,0.00
2008,11,06,03,47,0.00
2008,11,06,03,48,0.00
2008,11,06,03,49,0.00
2008,11,06,03,50,0.00
2008,11,06,03,51,0.00
2008,11,06,03,52,0.00
2008,11,06,03,53,0.00
2008,11,06,03,54,0.00
2008,11,06,03,55,0.00
2008,11,06,03,56,0.00
2008,11,06,03,57,0.00
2008,11,06,03,58,0.00
2008,11,06,03,59,0.00
2008,11,06,04,00,0.00
2008,11,06,04,01,0.00
2008,11,06,04,02,0.00
2008,11,06,04,03,0.00
2008,11,06,04,04,0.00
2008,11,06,04,05,0.00
2008,11,06,04,06,0.00
2008,11,06,04,07,0.00
2008,11,06,04,08,0.00
2008,11,06,04,09,0.00
2008,11,06,04,10,0.00
2008,11,06,04,11,0.00
2008,11,06,04,12,0.00
2008,11,06,04,13,0.00
2008,11,06,04,14,0.00
2008,11,06,04,15,0.00
2008,11,06,04,16,0.00
2008,11,06,04,17,0.00
2008,11,06,04,18,0.00
2008,11,06,04,19,0.00
2008,11,06,04,20,0.00
2008,11,06,04,21,0.00
2008,11,06,04,22,0.00
2008,11,06,04,23,0.00
2008,11,06,04,24,0.00
2008,11,06,04,25,0.00
2008,11,06,04,26,0.00
2008,11,06,04,27,0.00
2008,11,06,04,28,0.00
2008,11,06,04,29,0.00
2008,11,06,04,30,0.00
2008,11,06,04,31,0.00
2008,11,06,04,32,0.00
2008,11,06,04,33,0.00
2008,11,06,04,34,0.00
2008,11,06,04,35,0.00
2008,11,06,04,36,0.00
2008,11,06,04,37,0.00
2008,11,06,04,38,0.00
2008,11,06,04,39,0.00
2008,11,06,04,40,0.00
2008,11,06,04,41,0.00
2008,11,06,04,42,0.00
2008,11,06,04,43,0.00
2008,11,06,04,44,0.00
2008,11,06,04,45,0.00
2008,11,06,04,46,0.00
2008,11,06,04,47,0.00
2008,11,06,04,48,0.00
2008,11,06,04,49,0.00
2008,11,06,04,50,0.00
2008,11,06,04,51,0.00
2008,11,06,04,52,0.00
2008,11,06,04,53,0.00
2008,11,06,04,54,0.00
2008,11,06,04,55,0.00
2008,11,06,04,56,0.00
2008,11,06,04,57,0.00
2008,11,06,04,58,0.00
2008,11,06,04,59,0.00
2008,11,06,05,00,0.00
2008,11,06,05,01,0.00
2008,11,06,05,02,0.00
2008,11,06,05,03,0.00
2008,11,06,05,04,0.00
2008,11,06,05,05,0.00
2008,11,06,05,06,0.00
2008,11,06,05,07,0.00
2008,11,06,05,08,0.00
2008,11,06,05,09,0.00
2008,11,06,05,10,0.00
2008,11,06,05,11,0.00
2008,11,06,05,12,0.00
2008,11,06,05,13,0.00
2008,11,06,05,14,0.00
2008,11,06,05,15,0.00
2008,11,06,05,16,0.00
2008,11,06,05,17,0.00
2008,11,06,05,18,0.00
2008,11,06,05,19,0.00
2008,11,06,05,20,0.00
2008,11,06,05,21,0.00
2008,11,06,05,22,0.00
2008,11,06,05,23,0.00
2008,11,06,05,24,0.00
2008,11,06,05,25,0.00
2008,11,06,05,26,0.00
2008,11,06,05,27,0.00
2008,11,06,05,28,0.00
2008,11,06,05,29,0.00
2008,11,06,05,30,0.00
2008,11,06,05,31,0.00
2008,11,06,05,32,0.00
2008,11,06,05,33,0.00
2008,11,06,05,34,0.00
2008,11,06,05,35,0.00
2008,11,06,05,36,0.00
2008,11,06,05,37,0.00
2008,11,06,05,38,0.00
2008,11,06,05,39,0.00
2008,11,06,05,40,0.00
2008,11,06,05,41,0.00
2008,11,06,05,42,0.00
2008,11,06,05,43,0.00
2008,11,06,05,44,0.00
2008,11,06,05,45,0.00
2008,11,06,05,46,0.00
2008,11,06,05,47,0.00
2008,11,06,05,48,0.00
2008,11,06,05,49,0.00
2008,11,06,05,50,0.00
2008,11,06,05,51,0.00
2008,11,06,05,52,0.00
2008,11,06,05,53,0.00
2008,11,06,05,54,0.00
2008,11,06,05,55,0.00
2008,11,06,05,56,0.00
2008,11,06,05,57,0.00
2008,11,06,05,58,0.00
2008,11,06,05,59,0.00
2008,11,06,06,00,0.00
2008,11,06,06,01,0.00
2008,11,06,06,02,0.00
2008,11,06,06,03,0.00
2008,11,06,06,04,0.00
2008,11,06,06,05,0.00
2008,11,06,06,06,0.00
2008,11,06,06,07,0.00
2008,11,06,06,08,0.00
2008,11,06,06,09,0.00
2008,11,06,06,10,0.00
2008,11,06,06,11,0.00
2008,11,06,06,12,0.00
2008,11,06,06,13,0.00
2008,11,06,06,14,0.00
2008,11,06,06,15,0.00
2008,11,06,06,16,0.00
2008,11,06,06,17,0.00
2008,11,06,06,18,0.00
2008,11,06,06,19,0.00
2008,11,06,06,20,0.00
2008,11,06,06,21,0.00
2008,11,06,06,22,0.00
2008,11,06,06,23,0.00
2008,11,06,06,24,0.00
2008,11,06,06,25,0.00
2008,11,06,06,26,0.00
2008,11,06,06,27,0.00
2008,11,06,06,28,0.00
2008,11,06,06,29,0.00
2008,11,06,06,30,0.00
2008,11,06,06,31,0.00
2008,11,06,06,32,0.00
2008,11,06,06,33,0.00
2008,11,06,06,34,0.00
2008,11,06,06,35,0.00
2008,11,06,06,36,0.00
2008,11,06,06,37,0.00
2008,11,06,06,38,0.00
2008,11,06,06,39,0.00
2008,11,06,06,40,0.00
2008,11,06,06,41,0.00
2008,11,06,06,42,0.00
2008,11,06,06,43,0.00
2008,11,06,06,44,0.00
2008,11,06,06,45,0.00
2008,11,06,06,46,0.00
2008,11,06,06,47,0.00
2008,11,06,06,48,0.00
2008,11,06,06,49,0.00
2008,11,06,06,50,0.00
2008,11,06,06,51,0.00
2008,11,06,06,52,0.00
2008,11,06,06,53,0.00
2008,11,06,06,54,0.00
2008,11,06,06,55,0.00
2008,11,06,06,56,0.00
2008,11,06,06,57,0.00
2008,11,06,06,58,0.00
2008,11,06,06,59,0.00
2008,11,06,07,00,0.00
2008,11,06,07,01,0.00
2008,11,06,07,02,0.00
2008,11,06,07,03,0.00
2008,11,06,07,04,0.00
2008,11,06,07,05,0.00
2008,11,06,07,06,0.00
2008,11,06,07,07,0.00
2008,11,06,07,08,0.00
2008,11,06,07,09,0.00
2008,11,06,07,10,0.00
2008,11,06,07,11,0.00
2008,11,06,07,12,0.00
2008,11,06,07,13,0.00
2008,11,06,07,14,0.00
2008,11,06,07,15,0.00
2008,11,06,07,16,0.00
2008,11,06,07,17,0.00
2008,11,06,07,18,0.00
2008,11,06,07,19,0.00
2008,11,06,07,20,0.00
2008,11,06,07,21,0.00
2008,11,06,07,22,0.00
2008,11,06,07,23,0.00
2008,11,06,07,24,0.00
2008,11,06,07,25,0.00
2008,11,06,07,26,0.00
2008,11,06,07,27,0.00
2008,11,06,07,28,0.00
2008,11,06,07,29,0.00
2008,11,06,07,30,0.00
2008,11,06,07,31,0.00
2008,11,06,07,32,0.00
2008,11,06,07,33,0.00
2008,11,06,07,34,0.00
2008,11,06,07,35,0.00
2008,11,06,07,36,0.00
2008,11,06,07,37,0.00
2008,11,06,07,38,0.00
2008,11,06,07,39,0.00
2008,11,06,07,40,0.00
2008,11,06,07,41,0.00
2008,11,06,07,42,0.00
2008,11,06,07,43,0.00
2008,11,06,07,44,0.00
2008,11,06,07,45,0.00
2008,11,06,07,46,0.00
2008,11,06,07,47,0.00
2008,11,06,07,48,0.00
2008,11,06,07,49,0.00
2008,11,06,07,50,0.00
2008,11,06,07,51,0.00
2008,11,06,07,52,0.00
2008,11,06,07,53,0.00
2008,11,06,07,54,0.00
2008,11,06,07,55,0.00
2008,11,06,07,56,0.00
2008,11,06,07,57,0.00
2008,11,06,07,58,0.00
2008,11,06,07,59,0.00
2008,11,06,08,00,5.00
2008,11,06,08,01,3.50
2008,11,06,08,02,2.00
2008,11,06,08,03,5.00
2008,11,06,08,04,5.00
2008,11,06,08,05,0.30
2008,11,06,08,06,5.00
2008,11,06,08,07,5.00
2008,11,06,08,08,5.00
2008,11,06,08,09,5.00
2008,11,06,08,10,5.00
2008,11,06,08,11,5.00
2008,11,06,08,12,5.00
2008,11,06,08,13,5.00
2008,11,06,08,14,5.00
2008,11,06,08,15,5.00
2008,11,06,08,16,5.00
2008,11,06,08,17,5.00
2008,11,06,08,18,5.00
2008,11,06,08,19,5.00
2008,11,06,08,20,5.00
2008,11,06,08,21,5.00
2008,11,06,08,22,5.00
2008,11,06,08,23,5.10
2008,11,06,08,24,6.50
2008,11,06,08,25,5.80
2008,11,06,08,26,7.00
2008,11,06,08,27,5.60
2008,11,06,08,28,5.00
2008,11,06,08,29,6.60
2008,11,06,08,30,5.50
2008,11,06,08,31,6.20
2008,11,06,08,32,5.00
2008,11,06,08,33,5.00
2008,11,06,08,34,5.00
2008,11,06,08,35,5.00
2008,11,06,08,36,3.60
2008,11,06,08,37,0.00
2008,11,06,08,38,0.00
2008,11,06,08,39,0.00
2008,11,06,08,40,0.00
2008,11,06,08,41,0.00
2008,11,06,08,42,0.00
2008,11,06,08,43,0.00
2008,11,06,08,44,0.00
2008,11,06,08,45,0.00
2008,11,06,08,46,0.00
2008,11,06,08,47,0.00
2008,11,06,08,48,0.00
2008,11,06,08,49,0.00
2008,11,06,08,50,0.00
2008,11,06,08,51,0.00
2008,11,06,08,52,4.20
2008,11,06,08,53,0.00
2008,11,06,08,54,0.00
2008,11,06,08,55,0.00
2008,11,06,08,56,3.30
2008,11,06,08,57,5.00
2008,11,06,08,58,5.00
2008,11,06,08,59,5.00
2008,11,06,09,00,5.00
2008,11,06,09,01,5.00
2008,11,06,09,02,1.50
2008,11,06,09,03,0.00
2008,11,06,09,04,5.00
2008,11,06,09,05,5.00
2008,11,06,09,06,5.00
2008,11,06,09,07,6.10
2008,11,06,09,08,7.00
2008,11,06,09,09,8.80
2008,11,06,09,10,9.20
2008,11,06,09,11,11.00
2008,11,06,09,12,11.40
2008,11,06,09,13,13.20
2008,11,06,09,14,14.00
2008,11,06,09,15,14.00
2008,11,06,09,16,12.00
2008,11,06,09,17,12.00
2008,11,06,09,18,11.60
2008,11,06,09,19,11.00
2008,11,06,09,20,11.00
2008,11,06,09,21,11.90
2008,11,06,09,22,12.00
2008,11,06,09,23,12.00
2008,11,06,09,24,12.80
2008,11,06,09,25,14.00
2008,11,06,09,26,12.50
2008,11,06,09,27,11.20
2008,11,06,09,28,9.00
2008,11,06,09,29,8.30
2008,11,06,09,30,7.90
2008,11,06,09,31,10.10
2008,11,06,09,32,11.80
2008,11,06,09,33,15.80
2008,11,06,09,34,19.40
2008,11,06,09,35,21.00
2008,11,06,09,36,21.00
2008,11,06,09,37,21.00
2008,11,06,09,38,21.00
2008,11,06,09,39,25.00
2008,11,06,09,40,26.40
2008,11,06,09,41,28.00
2008,11,06,09,42,26.90
2008,11,06,09,43,23.00
2008,11,06,09,44,18.80
2008,11,06,09,45,13.90
2008,11,06,09,46,11.80
2008,11,06,09,47,10.30
2008,11,06,09,48,9.00
2008,11,06,09,49,9.00
2008,11,06,09,50,10.50
2008,11,06,09,51,11.00
2008,11,06,09,52,11.00
2008,11,06,09,53,11.40
2008,11,06,09,54,13.00
2008,11,06,09,55,15.50
2008,11,06,09,56,16.00
2008,11,06,09,57,16.00
2008,11,06,09,58,16.00
2008,11,06,09,59,16.00
2008,11,06,10,00,16.00
2008,11,06,10,01,16.00
2008,11,06,10,02,16.00
2008,11,06,10,03,15.80
2008,11,06,10,04,13.40
2008,11,06,10,05,11.60
2008,11,06,10,06,11.00
2008,11,06,10,07,11.00
2008,11,06,10,08,9.10
2008,11,06,10,09,9.30
2008,11,06,10,10,11.00
2008,11,06,10,11,11.00
2008,11,06,10,12,11.00
2008,11,06,10,13,11.00
2008,11,06,10,14,11.00
2008,11,06,10,15,11.20
2008,11,06,10,16,12.00
2008,11,06,10,17,12.00
2008,11,06,10,18,12.00
2008,11,06,10,19,12.00
2008,11,06,10,20,11.00
2008,11,06,10,21,11.00
2008,11,06,10,22,11.00
2008,11,06,10,23,11.00
2008,11,06,10,24,11.00
2008,11,06,10,25,9.20
2008,11,06,10,26,9.00
2008,11,06,10,27,9.00
2008,11,06,10,28,9.00
2008,11,06,10,29,9.00
2008,11,06,10,30,9.00
2008,11,06,10,31,9.00
2008,11,06,10,32,10.80
2008,11,06,10,33,11.20
2008,11,06,10,34,12.90
2008,11,06,10,35,14.00
2008,11,06,10,36,14.00
2008,11,06,10,37,14.00
2008,11,06,10,38,14.00
2008,11,06,10,39,14.00
2008,11,06,10,40,14.00
2008,11,06,10,41,14.00
2008,11,06,10,42,14.00
2008,11,06,10,43,15.90
2008,11,06,10,44,16.20
2008,11,06,10,45,18.30
2008,11,06,10,46,19.00
2008,11,06,10,47,19.00
2008,11,06,10,48,18.20
2008,11,06,10,49,16.10
2008,11,06,10,50,13.70
2008,11,06,10,51,12.00
2008,11,06,10,52,12.00
2008,11,06,10,53,12.00
2008,11,06,10,54,11.20
2008,11,06,10,55,11.00
2008,11,06,10,56,11.00
2008,11,06,10,57,11.00
2008,11,06,10,58,11.00
2008,11,06,10,59,11.00
2008,11,06,11,00,11.00
2008,11,06,11,01,11.00
2008,11,06,11,02,11.00
2008,11,06,11,03,11.00
2008,11,06,11,04,11.00
2008,11,06,11,05,11.60
2008,11,06,11,06,11.20
2008,11,06,11,07,11.00
2008,11,06,11,08,11.00
2008,11,06,11,09,11.00
2008,11,06,11,10,11.50
2008,11,06,11,11,12.00
2008,11,06,11,12,12.00
2008,11,06,11,13,14.00
2008,11,06,11,14,14.00
2008,11,06,11,15,14.00
2008,11,06,11,16,14.00
2008,11,06,11,17,14.00
2008,11,06,11,18,15.60
2008,11,06,11,19,15.80
2008,11,06,11,20,13.50
2008,11,06,11,21,12.00
2008,11,06,11,22,13.10
2008,11,06,11,23,14.00
2008,11,06,11,24,15.90
2008,11,06,11,25,16.00
2008,11,06,11,26,16.00
2008,11,06,11,27,16.90
2008,11,06,11,28,18.00
2008,11,06,11,29,18.00
2008,11,06,11,30,18.00
2008,11,06,11,31,19.00
2008,11,06,11,32,19.00
2008,11,06,11,33,18.50
2008,11,06,11,34,16.70
2008,11,06,11,35,17.40
2008,11,06,11,36,19.00
2008,11,06,11,37,19.00
2008,11,06,11,38,19.00
2008,11,06,11,39,19.90
2008,11,06,11,40,21.00
2008,11,06,11,41,21.00
2008,11,06,11,42,24.50
2008,11,06,11,43,22.60
2008,11,06,11,44,21.80
2008,11,06,11,45,24.10
2008,11,06,11,46,25.00
2008,11,06,11,47,23.20
2008,11,06,11,48,25.10
2008,11,06,11,49,26.00
2008,11,06,11,50,25.60
2008,11,06,11,51,23.90
2008,11,06,11,52,24.30
2008,11,06,11,53,23.20
2008,11,06,11,54,23.00
2008,11,06,11,55,23.50
2008,11,06,11,56,24.30
2008,11,06,11,57,23.00
2008,11,06,11,58,24.60
2008,11,06,11,59,27.80
2008,11,06,12,00,30.00
2008,11,06,12,01,29.50
2008,11,06,12,02,28.90
2008,11,06,12,03,30.00
2008,11,06,12,04,31.60
2008,11,06,12,05,32.90
2008,11,06,12,06,33.00
2008,11,06,12,07,33.00
2008,11,06,12,08,32.60
2008,11,06,12,09,32.60
2008,11,06,12,10,33.00
2008,11,06,12,11,34.90
2008,11,06,12,12,33.00
2008,11,06,12,13,34.20
2008,11,06,12,14,37.90
2008,11,06,12,15,37.70
2008,11,06,12,16,38.60
2008,11,06,12,17,43.20
2008,11,06,12,18,46.20
2008,11,06,12,19,47.00
2008,11,06,12,20,47.00
2008,11,06,12,21,44.90
2008,11,06,12,22,42.40
2008,11,06,12,23,40.30
2008,11,06,12,24,42.40
2008,11,06,12,25,44.80
2008,11,06,12,26,46.60
2008,11,06,12,27,49.90
2008,11,06,12,28,53.60
2008,11,06,12,29,55.50
2008,11,06,12,30,50.20
2008,11,06,12,31,45.20
2008,11,06,12,32,42.00
2008,11,06,12,33,40.60
2008,11,06,12,34,40.00
2008,11,06,12,35,40.00
2008,11,06,12,36,40.00
2008,11,06,12,37,38.70
2008,11,06,12,38,35.80
2008,11,06,12,39,35.00
2008,11,06,12,40,35.00
2008,11,06,12,41,35.00
2008,11,06,12,42,35.50
2008,11,06,12,43,37.90
2008,11,06,12,44,36.60
2008,11,06,12,45,36.50
2008,11,06,12,46,38.60
2008,11,06,12,47,39.40
2008,11,06,12,48,43.70
2008,11,06,12,49,49.80
2008,11,06,12,50,53.50
2008,11,06,12,51,55.50
2008,11,06,12,52,57.90
2008,11,06,12,53,62.80
2008,11,06,12,54,61.30
2008,11,06,12,55,59.10
2008,11,06,12,56,56.90
2008,11,06,12,57,56.00
2008,11,06,12,58,54.00
2008,11,06,12,59,53.00
2008,11,06,13,00,52.30
2008,11,06,13,01,49.00
2008,11,06,13,02,46.30
2008,11,06,13,03,42.70
2008,11,06,13,04,42.20
2008,11,06,13,05,46.90
2008,11,06,13,06,50.30
2008,11,06,13,07,48.10
2008,11,06,13,08,46.30
2008,11,06,13,09,46.00
2008,11,06,13,10,42.00
2008,11,06,13,11,43.10
2008,11,06,13,12,47.70
2008,11,06,13,13,48.00
2008,11,06,13,14,46.30
2008,11,06,13,15,44.20
2008,11,06,13,16,44.20
2008,11,06,13,17,47.50
2008,11,06,13,18,51.10
2008,11,06,13,19,55.00
2008,11,06,13,20,60.30
2008,11,06,13,21,62.90
2008,11,06,13,22,58.00
2008,11,06,13,23,57.30
2008,11,06,13,24,61.20
2008,11,06,13,25,64.10
2008,11,06,13,26,63.40
2008,11,06,13,27,58.30
2008,11,06,13,28,53.90
2008,11,06,13,29,53.20
2008,11,06,13,30,54.90
2008,11,06,13,31,56.00
2008,11,06,13,32,53.50
2008,11,06,13,33,49.20
2008,11,06,13,34,47.00
2008,11,06,13,35,47.00
2008,11,06,13,36,47.00
2008,11,06,13,37,46.40
2008,11,06,13,38,44.30
2008,11,06,13,39,40.00
2008,11,06,13,40,38.60
2008,11,06,13,41,37.00
2008,11,06,13,42,38.60
2008,11,06,13,43,41.30
2008,11,06,13,44,45.30
2008,11,06,13,45,47.00
2008,11,06,13,46,47.90
2008,11,06,13,47,50.20
2008,11,06,13,48,47.50
2008,11,06,13,49,44.70
2008,11,06,13,50,44.00
2008,11,06,13,51,42.00
2008,11,06,13,52,38.90
2008,11,06,13,53,34.30
2008,11,06,13,54,33.00
2008,11,06,13,55,32.30
2008,11,06,13,56,30.40
2008,11,06,13,57,32.20
2008,11,06,13,58,36.10
2008,11,06,13,59,40.00
2008,11,06,14,00,37.50
2008,11,06,14,01,31.40
2008,11,06,14,02,23.40
2008,11,06,14,03,20.80
2008,11,06,14,04,19.50
2008,11,06,14,05,21.70
2008,11,06,14,06,24.60
2008,11,06,14,07,29.10
2008,11,06,14,08,30.00
2008,11,06,14,09,26.10
2008,11,06,14,10,25.30
2008,11,06,14,11,26.00
2008,11,06,14,12,26.00
2008,11,06,14,13,27.50
2008,11,06,14,14,28.00
2008,11,06,14,15,25.00
2008,11,06,14,16,25.00
2008,11,06,14,17,25.50
2008,11,06,14,18,26.00
2008,11,06,14,19,25.30
2008,11,06,14,20,23.00
2008,11,06,14,21,19.40
2008,11,06,14,22,22.40
2008,11,06,14,23,24.10
2008,11,06,14,24,23.00
2008,11,06,14,25,19.70
2008,11,06,14,26,19.00
2008,11,06,14,27,19.00
2008,11,06,14,28,18.60
2008,11,06,14,29,18.00
2008,11,06,14,30,18.00
2008,11,06,14,31,18.90
2008,11,06,14,32,19.30
2008,11,06,14,33,26.20
2008,11,06,14,34,31.10
2008,11,06,14,35,34.00
2008,11,06,14,36,38.50
2008,11,06,14,37,43.60
2008,11,06,14,38,43.50
2008,11,06,14,39,34.50
2008,11,06,14,40,31.80
2008,11,06,14,41,30.00
2008,11,06,14,42,30.00
2008,11,06,14,43,28.20
2008,11,06,14,44,26.40
2008,11,06,14,45,31.20
2008,11,06,14,46,37.20
2008,11,06,14,47,44.10
2008,11,06,14,48,47.00
2008,11,06,14,49,42.30
2008,11,06,14,50,39.00
2008,11,06,14,51,39.20
2008,11,06,14,52,40.00
2008,11,06,14,53,39.40
2008,11,06,14,54,37.60
2008,11,06,14,55,32.30
2008,11,06,14,56,26.00
2008,11,06,14,57,26.00
2008,11,06,14,58,24.50
2008,11,06,14,59,20.40
2008,11,06,15,00,18.20
2008,11,06,15,01,18.00
2008,11,06,15,02,18.00
2008,11,06,15,03,17.30
2008,11,06,15,04,16.00
2008,11,06,15,05,17.30
2008,11,06,15,06,18.80
2008,11,06,15,07,26.00
2008,11,06,15,08,28.00
2008,11,06,15,09,27.40
2008,11,06,15,10,25.50
2008,11,06,15,11,25.00
2008,11,06,15,12,25.00
2008,11,06,15,13,25.00
2008,11,06,15,14,24.50
2008,11,06,15,15,21.60
2008,11,06,15,16,18.50
2008,11,06,15,17,18.00
2008,11,06,15,18,18.00
2008,11,06,15,19,19.30
2008,11,06,15,20,23.70
2008,11,06,15,21,26.00
2008,11,06,15,22,26.00
2008,11,06,15,23,26.00
2008,11,06,15,24,26.00
2008,11,06,15,25,25.90
2008,11,06,15,26,25.30
2008,11,06,15,27,26.00
2008,11,06,15,28,27.10
2008,11,06,15,29,28.00
2008,11,06,15,30,26.40
2008,11,06,15,31,26.00
2008,11,06,15,32,26.60
2008,11,06,15,33,28.00
2008,11,06,15,34,30.40
2008,11,06,15,35,37.40
2008,11,06,15,36,43.70
2008,11,06,15,37,43.70
2008,11,06,15,38,40.50
2008,11,06,15,39,35.00
2008,11,06,15,40,28.70
2008,11,06,15,41,23.50
2008,11,06,15,42,19.00
2008,11,06,15,43,18.00
2008,11,06,15,44,18.00
2008,11,06,15,45,18.00
2008,11,06,15,46,18.60
2008,11,06,15,47,20.50
2008,11,06,15,48,21.00
2008,11,06,15,49,23.40
2008,11,06,15,50,25.00
2008,11,06,15,51,23.90
2008,11,06,15,52,21.60
2008,11,06,15,53,19.20
2008,11,06,15,54,15.80
2008,11,06,15,55,14.00
2008,11,06,15,56,14.00
2008,11,06,15,57,13.00
2008,11,06,15,58,12.00
2008,11,06,15,59,11.10
2008,11,06,16,00,11.90
2008,11,06,16,01,12.00
2008,11,06,16,02,11.60
2008,11,06,16,03,11.00
2008,11,06,16,04,11.60
2008,11,06,16,05,12.00
2008,11,06,16,06,12.00
2008,11,06,16,07,11.70
2008,11,06,16,08,11.00
2008,11,06,16,09,11.00
2008,11,06,16,10,11.80
2008,11,06,16,11,12.00
2008,11,06,16,12,12.00
2008,11,06,16,13,12.00
2008,11,06,16,14,11.60
2008,11,06,16,15,11.00
2008,11,06,16,16,11.00
2008,11,06,16,17,11.90
2008,11,06,16,18,14.00
2008,11,06,16,19,14.00
2008,11,06,16,20,13.00
2008,11,06,16,21,12.00
2008,11,06,16,22,11.30
2008,11,06,16,23,9.10
2008,11,06,16,24,8.70
2008,11,06,16,25,7.00
2008,11,06,16,26,6.10
2008,11,06,16,27,5.00
2008,11,06,16,28,5.00
2008,11,06,16,29,5.00
2008,11,06,16,30,5.00
2008,11,06,16,31,5.00
2008,11,06,16,32,5.00
2008,11,06,16,33,5.00
2008,11,06,16,34,5.00
2008,11,06,16,35,0.00
2008,11,06,16,36,0.00
2008,11,06,16,37,0.00
2008,11,06,16,38,0.00
2008,11,06,16,39,0.00
2008,11,06,16,40,0.00
2008,11,06,16,41,0.00
2008,11,06,16,42,0.00
2008,11,06,16,43,0.00
2008,11,06,16,44,0.00
2008,11,06,16,45,0.00
2008,11,06,16,46,0.00
2008,11,06,16,47,0.00
2008,11,06,16,48,0.00
2008,11,06,16,49,0.00
2008,11,06,16,50,0.00
2008,11,06,16,51,0.00
2008,11,06,16,52,0.00
2008,11,06,16,53,0.00
2008,11,06,16,54,0.00
2008,11,06,16,55,0.00
2008,11,06,16,56,0.00
2008,11,06,16,57,0.00
2008,11,06,16,58,0.00
2008,11,06,16,59,0.00
2008,11,06,17,00,0.00
2008,11,06,17,01,0.00
2008,11,06,17,02,0.00
2008,11,06,17,03,0.00
2008,11,06,17,04,0.00
2008,11,06,17,05,0.00
2008,11,06,17,06,0.00
2008,11,06,17,07,0.00
2008,11,06,17,08,0.00
2008,11,06,17,09,0.00
2008,11,06,17,10,0.00
2008,11,06,17,11,0.00
2008,11,06,17,12,0.00
2008,11,06,17,13,0.00
2008,11,06,17,14,0.00
2008,11,06,17,15,0.00
2008,11,06,17,16,0.00
2008,11,06,17,17,0.00
2008,11,06,17,18,0.00
2008,11,06,17,19,0.00
2008,11,06,17,20,0.00
2008,11,06,17,21,0.00
2008,11,06,17,22,0.00
2008,11,06,17,23,0.00
2008,11,06,17,24,0.00
2008,11,06,17,25,0.00
2008,11,06,17,26,0.00
2008,11,06,17,27,0.00
2008,11,06,17,28,0.00
2008,11,06,17,29,0.00
2008,11,06,17,30,0.00
2008,11,06,17,31,0.00
2008,11,06,17,32,0.00
2008,11,06,17,33,0.00
2008,11,06,17,34,0.00
2008,11,06,17,35,0.00
2008,11,06,17,36,0.00
2008,11,06,17,37,0.00
2008,11,06,17,38,0.00
2008,11,06,17,39,0.00
2008,11,06,17,40,0.00
2008,11,06,17,41,0.00
2008,11,06,17,42,0.00
2008,11,06,17,43,0.00
2008,11,06,17,44,0.00
2008,11,06,17,45,0.00
2008,11,06,17,46,0.00
2008,11,06,17,47,0.00